Regional Weather Roundup
Issued by NWS Sioux Falls, SD

Home | Current Version | Previous Version | Text Only | Print | Product List | Glossary Off
Versions: 1 2 3 4 5 6 7 8 9 10 11 12 13 14 15 16 17 18 19 20 21 22 23 24 25 26 27 28 29 30 31 32 33 34 35 36 37 38 39 40 41 42 43 44 45 46 47 48 49 50

000
ASUS43 KFSD 281502
RWRFSD

WEATHER ROUNDUP FOR SE SOUTH DAKOTA/SW MINNESOTA/NW IOWA
NATIONAL WEATHER SERVICE SIOUX FALLS SD
1000 AM CDT SUN MAY 28 2017

NOTE: "FAIR" INDICATES FEW OR NO CLOUDS BELOW 12,000 FEET WITH NO
SIGNIFICANT WEATHER AND OR OBSTRUCTIONS TO VISIBILITY.


SDZ038>040-050-052>070-281600-
SOUTHEAST SOUTH DAKOTA

CITY           SKY/WX    TMP DP  RH WIND       PRES   REMARKS
BROOKINGS      SUNNY     62  45  53 NW13      29.87R
CHAMBERLAIN    SUNNY     70  42  36 NW21G30   29.95R
HURON          SUNNY     64  49  57 N13       29.90R
MADISON        FAIR      63  48  59 NW10      29.88R
MITCHELL       SUNNY     67  47  48 NW15      29.90S
SIOUX FALLS    MOSUNNY   65  48  54 W7        29.87S
WINNER         FAIR      66  47  50 NW17      29.99R
YANKTON        SUNNY     65  51  60 NW15G24   29.90S
$$

MNZ071-072-080-081-089-090-097-098-281600-
SOUTHWEST MINNESOTA

CITY           SKY/WX    TMP DP  RH WIND       PRES   REMARKS
FAIRMONT       SUNNY     65  45  48 NW16      29.83S
JACKSON        SUNNY     64  43  45 NW14      29.85S
LUVERNE        SUNNY     63  43  48 NW5       29.87S
MARSHALL       SUNNY     64  44  48 NW15      29.83S
MONTEVIDEO     SUNNY     66  46  48 N8        29.81F
PIPESTONE      SUNNY     63  43  48 NW7       29.86S
REDWOOD FALLS  SUNNY     65  44  46 W15G21    29.81S
TRACY          SUNNY     64  46  52 NW8       29.84S
WINDOM         SUNNY     64  45  48 NW15G22   29.84S
WORTHINGTON    SUNNY     65  43  44 NW13      29.86S
$$

IAZ001>003-012>014-020>022-031-032-NEZ013-014-SDZ071-281600-
NORTHWEST IOWA

CITY           SKY/WX    TMP DP  RH WIND       PRES   REMARKS
CHEROKEE       SUNNY     65  51  59 NW3       29.87S
DENISON        SUNNY     68  50  52 NW7       29.91S
ESTHERVILLE    SUNNY     65  46  50 NW14      29.84R
LE MARS        SUNNY     68  48  49 CALM      29.89S
ORANGE CITY    SUNNY     64  48  55 NW5       29.88S
SHELDON        SUNNY     64  46  52 NW7G14    29.86S
SIOUX CITY     SUNNY     68  51  54 NW8       29.89F
SPENCER        SUNNY     66  46  48 NW9       29.86S
STORM LAKE     SUNNY     66  46  48 W9        29.88R
$$

ABBREVIATIONS USED IN REMARKS
   TC - TEMPERATURE IN CELSIUS
  WCI - WIND CHILL INDEX
   HX - HEAT INDEX
  VSB - VISIBILITY




USA.gov is the U.S. government's official web portal to all federal, state and local government web resources and services.